[Date Prev][Date Next][Thread Prev][Thread Next] - [Date Index][Thread Index][Author Index]

2 Line ISS Keps 7-6



ISS
1 25544U 98067A   06188.16020067  .00014812  00000-0  96328-4 0  2435
2 25544 051.6320 084.6012 0010459 049.3619 065.4713 15.76157915436311
----
Via the sarex mailing list at AMSAT.ORG courtesy of AMSAT-NA.
To unsubscribe, send "unsubscribe sarex" to Majordomo@amsat.org



AMSAT Top AMSAT Home